Overview Statistics Trail Chart Weather Telemetry Raw packets
 

This is the latest recevied weather packets stored in our database for station/object KC9DRE. If no packets are shown the sender has not sent any weather packets the latest 10 day(s).

<< 66 67 68 69 70 71 72 >>
Time Temp. Humidity Pressure Rain* Wind** Luminosity Snow
1777465044 16.11° C 97% 1010.7 hPa 0 mm - 30 W/m² -
1777464739 16.11° C 97% 1010.8 hPa 0 mm - 25 W/m² -
1777464436 16.11° C 97% 1010.9 hPa 0 mm - 33 W/m² -
1777464132 16.11° C 97% 1010.8 hPa 0 mm - 26 W/m² -
1777463831 16.11° C 97% 1010.8 hPa 0 mm - 23 W/m² -
1777463527 16.11° C 98% 1010.7 hPa 0 mm - 29 W/m² -
1777463222 16.11° C 98% 1010.7 hPa 0 mm - 50 W/m² -
1777462918 16.11° C 98% 1010.8 hPa 0 mm - 40 W/m² -
1777462615 16.11° C 98% 1010.9 hPa 0 mm - 25 W/m² -
1777462310 16.11° C 98% 1011 hPa 0 mm - 20 W/m² -
1777462006 16.11° C 98% 1010.9 hPa 0 mm - 16 W/m² -
1777461704 15.56° C 97% 1010.7 hPa 0 mm - 18 W/m² -
1777461404 15.56° C 97% 1010.7 hPa 0 mm - 15 W/m² -
1777461100 15.56° C 97% 1010.8 hPa 0 mm - 6 W/m² -
1777460796 15.56° C 97% 1010.9 hPa 0 mm - 5 W/m² -
1777460492 15.56° C 97% 1010.6 hPa 0 mm - 4 W/m² -
1777460187 15.56° C 97% 1010.9 hPa 0 mm - 3 W/m² -
1777459885 15.56° C 97% 1010.9 hPa 0 mm - 1 W/m² -
1777459582 15.56° C 97% 1010.8 hPa 0 mm - 0 W/m² -
1777459279 15.56° C 97% 1011 hPa 0 mm - 0 W/m² -
1777458977 15.56° C 97% 1010.8 hPa 0 mm - 0 W/m² -
1777458674 15.56° C 97% 1010.6 hPa 0 mm - 0 W/m² -
1777458370 15.56° C 97% 1010.6 hPa 0 mm - 0 W/m² -
1777458066 15.56° C 97% 1010.7 hPa 0 mm - 0 W/m² -
1777457761 15.56° C 97% 1010.9 hPa 0 mm - 0 W/m² -

* Rain latest hour (hover to see other rain measurements)
** Current wind speed in m/s (hover to see current wind gust speed)